Flag for U.S.A. Weather past 2 weeks in Ann Arbor, Michigan, U.S.A.

Now
77 °F

Broken clouds.


Feels Like: 79 °F
Forecast: 64 / 80 °F
Wind: 7 mph from South

Location: Ann Arbor Municipal Airport

Current Time: Aug 30, 2015 at 2:03:55 PM

Latest Report: Aug 30, 2015 at 1:00 PM


Visibility: 9 mi

Pressure: 30.07 "Hg

Humidity: 74%

Dew point: 68 °F

Location of Ann ArborLocation

Historic Weather in Ann Arbor — Graph

°F

Ann Arbor temperature yesterday

Maximum temperature yesterday: 75 °F (at 2:53 PM)
Minimum temperature yesterday: 59 °F (at 4:53 AM)
Average temperature yesterday: 67 °F

Past Weeks' High & Low Weather Summary

 TemperatureHumidityPressure
High86 °F (Aug 16, 3:53 PM)100% (Aug 16, 6:58 AM)30.22 "Hg (Aug 16, 6:58 AM)
Low42 °F (Aug 28, 6:53 AM)39% (Aug 21, 2:53 PM)29.68 "Hg (Aug 20, 12:53 AM)
Average66 °F79%30.02 "Hg
* Reported Aug 15 11:53 AM — Aug 30 11:53 AM, Ann Arbor, Weather by CustomWeather, © 2015

Note: Actual official high and low records may vary slightly from our data, if they occured in-between our weather recording intervals... More about our weather records

Advertising

Ann Arbor weather history for previous 24 hours

 ConditionsComfort  
Time TempWeatherWind HumidityBarometerVisibility
11:53 AM
Sun, Aug 30
75 °FMostly cloudy.5 mph79%30.07 "Hg9 mi
10:53 AM72 °FFog.3 mph87%30.07 "Hg6 mi
9:53 AM69 °FFog.3 mph90%30.07 "Hg5 mi
8:53 AM68 °FFog.No wind90%30.07 "Hg5 mi
8:00 AM67 °FFog.No wind93%30.07 "Hg2 mi
6:53 AM66 °FFog.No wind96%30.04 "Hg3 mi
5:53 AM65 °FFog.No wind97%30.03 "Hg3 mi
5:00 AM66 °FFog.No wind96%30.04 "Hg3 mi
3:53 AM66 °FFog.No wind93%30.02 "Hg3 mi
2:53 AM65 °FFog.No wind97%30.03 "Hg2 mi
1:53 AM67 °FFog.No wind93%30.05 "Hg4 mi
12:53 AM67 °FLight rain. Fog.No wind93%30.05 "Hg6 mi
11:53 PM
Sat, Aug 29
68 °FLight rain. Passing clouds.No wind90%30.06 "Hg8 mi
10:53 PM66 °FPartly cloudy.No wind93%30.07 "Hg8 mi
9:53 PM67 °FLight rain. Partly cloudy.No wind90%30.07 "Hg8 mi
8:53 PM67 °FCloudy.No wind90%30.06 "Hg10 mi
7:53 PM70 °FPartly sunny.No wind81%30.04 "Hg10 mi
6:53 PM73 °FMore clouds than sun.3 mph74%30.04 "Hg10 mi
5:53 PM74 °FMore clouds than sun.8 mph71%30.03 "Hg10 mi
4:53 PM75 °FBroken clouds.5 mph66%30.06 "Hg10 mi
3:53 PM74 °FMostly cloudy.8 mph69%30.06 "Hg10 mi
2:53 PM75 °FOvercast.No wind66%30.08 "Hg10 mi
Weather by CustomWeather, © 2015

See weather overviewHow to use our weather pages